Location: Most
(50.5133°N, 13.6207°E)
Time: 01:33:27
(UTC+02:00)

ISS - Pass Details

Date: 23 September 2021
Orbit: 417 x 423 km, 51.6° (Epoch: 22 October)

Event Time Altitude Azimuth Distance (km) Brightness Sun altitude
Rises 21:41:08 0° 278° (W) 2,366 1.1 -24.9°
Reaches altitude 10° 21:43:14 10° 280° (W) 1,503 -0.1 -25.2°
Enters shadow 21:45:05 30° 286° (WNW) 784 -1.9 -25.4°
